| time (UTC) | temp F | wind direction | speed knots | gust knots | rain 1hr in | rain 24hr in | rain mn in | humidity % | barometer mb |
| 20260507075752 | 57 | 53 | 2.6 | 7.8 | 0.00 | 0.00 | 0.00 | 91 | 1016.3 |
| 20260507074852 | 57 | 57 | 2.6 | 5.2 | 0.00 | 0.00 | 0.00 | 91 | 1016.5 |
| 20260507073052 | 58 | 59 | 2.6 | 8.7 | 0.00 | 0.00 | 0.00 | 91 | 1016.5 |
| 20260507070441 | 58 | 59 | 3.5 | 9.6 | 0.00 | 0.00 | 0.00 | 90 | 1016.5 |
| 20260507065542 | 58 | 65 | 1.7 | 7.8 | 0.00 | 0.00 | 0.00 | 90 | 1016.4 |
| 20260507064641 | 58 | 58 | 2.6 | 7.8 | 0.00 | 0.00 | 0.00 | 90 | 1016.4 |
| 20260507063742 | 58 | 59 | 2.6 | 7.8 | 0.00 | 0.00 | 0.00 | 90 | 1016.4 |
| 20260507061941 | 58 | 55 | 3.5 | 10.4 | 0.00 | 0.00 | 0.00 | 90 | 1016.4 |
| 20260507061041 | 58 | 55 | 2.6 | 8.7 | 0.00 | 0.00 | 0.00 | 90 | 1016.4 |
| 20260507060141 | 58 | 55 | 3.5 | 7.8 | 0.00 | 0.00 | 0.00 | 89 | 1016.4 |
| 20260507055242 | 59 | 50 | 2.6 | 7.0 | 0.00 | 0.00 | 0.00 | 89 | 1016.5 |
| 20260507052417 | 59 | 62 | 2.6 | 9.6 | 0.00 | 0.00 | 0.00 | 87 | 1016.6 |
| 20260507051517 | 59 | 61 | 4.3 | 8.7 | 0.00 | 0.00 | 0.00 | 86 | 1016.4 |
| 20260507050617 | 60 | 55 | 4.3 | 8.7 | 0.00 | 0.00 | 0.00 | 85 | 1016.2 |
| 20260507045716 | 60 | 67 | 3.5 | 9.6 | 0.00 | 0.00 | 0.00 | 83 | 1016.2 |
| 20260507044817 | 60 | 63 | 3.5 | 9.6 | 0.00 | 0.00 | 0.00 | 82 | 1016.2 |
| 20260507043917 | 60 | 65 | 4.3 | 9.6 | 0.00 | 0.00 | 0.00 | 81 | 1016.3 |
| 20260507043016 | 60 | 63 | 3.5 | 7.8 | 0.00 | 0.00 | 0.00 | 81 | 1016.2 |
| 20260507042117 | 60 | 58 | 3.5 | 7.8 | 0.00 | 0.00 | 0.00 | 79 | 1016.1 |
| 20260507041217 | 60 | 67 | 1.7 | 7.0 | 0.00 | 0.00 | 0.00 | 80 | 1016.1 |
| 20260507040317 | 60 | 62 | 3.5 | 7.0 | 0.00 | 0.00 | 0.00 | 81 | 1015.9 |
| 20260507035417 | 60 | 73 | 1.7 | 3.5 | 0.00 | 0.00 | 0.00 | 81 | 1015.9 |
| 20260507034517 | 60 | 38 | 0.9 | 3.5 | 0.00 | 0.00 | 0.00 | 82 | 1015.8 |
| 20260507033617 | 60 | 0 | 0.0 | 3.5 | 0.00 | 0.00 | 0.00 | 82 | 1015.7 |
| 20260507032717 | 60 | 76 | 0.9 | 3.5 | 0.00 | 0.00 | 0.00 | 84 | 1015.6 |
| 20260507031817 | 61 | 0 | 0.0 | 0.9 | 0.00 | 0.00 | 0.00 | 84 | 1015.7 |
| 20260507030917 | 61 | 0 | 0.0 | 1.7 | 0.00 | 0.00 | 0.00 | 83 | 1015.6 |
| 20260507030017 | 61 | 0 | 0.0 | 0.0 | 0.00 | 0.00 | 0.00 | 81 | 1015.5 |
| 20260507025117 | 62 | 0 | 0.0 | 0.9 | 0.00 | 0.00 | 0.00 | 80 | 1015.5 |
| 20260507024217 | 62 | 0 | 0.0 | 2.6 | 0.00 | 0.00 | 0.00 | 80 | 1015.5 |
| 20260507022417 | 63 | 0 | 0.0 | 2.6 | 0.00 | 0.00 | 0.00 | 79 | 1015.4 |
| 20260507021517 | 63 | 208 | 0.9 | 3.5 | 0.00 | 0.00 | 0.00 | 78 | 1015.4 |
| 20260507020616 | 63 | 0 | 0.0 | 1.7 | 0.00 | 0.00 | 0.00 | 78 | 1015.4 |
| 20260507014817 | 64 | 224 | 0.9 | 3.5 | 0.00 | 0.00 | 0.00 | 77 | 1015.7 |
| 20260507013917 | 65 | 214 | 1.7 | 3.5 | 0.00 | 0.00 | 0.00 | 76 | 1015.7 |
| 20260507013017 | 66 | 212 | 1.7 | 4.3 | 0.00 | 0.00 | 0.00 | 74 | 1015.7 |
| 20260507012117 | 66 | 230 | 1.7 | 5.2 | 0.00 | 0.00 | 0.00 | 72 | 1015.8 |
| 20260507010927 | 66 | 213 | 1.7 | 4.3 | 0.00 | 0.00 | 0.00 | 70 | 1015.7 |
| 20260507010026 | 66 | 240 | 1.7 | 6.1 | 0.00 | 0.00 | 0.00 | 71 | 1015.7 |
| 20260507005126 | 66 | 261 | 2.6 | 7.0 | 0.00 | 0.00 | 0.00 | 70 | 1015.7 |
| 20260507004227 | 67 | 225 | 2.6 | 6.1 | 0.00 | 0.00 | 0.00 | 68 | 1015.8 |
| 20260507003326 | 66 | 224 | 3.5 | 8.7 | 0.00 | 0.00 | 0.00 | 68 | 1015.8 |
| 20260507002426 | 66 | 223 | 2.6 | 7.0 | 0.00 | 0.00 | 0.00 | 69 | 1015.8 |
| 20260507001527 | 65 | 212 | 2.6 | 7.0 | 0.00 | 0.00 | 0.00 | 71 | 1015.8 |
| 20260507000626 | 66 | 207 | 0.9 | 6.1 | 0.00 | 0.00 | 0.00 | 76 | 1015.8 |
| 20260506235726 | 67 | 200 | 1.7 | 7.0 | 0.00 | 0.00 | 0.00 | 71 | 1015.8 |
| 20260506234827 | 67 | 238 | 1.7 | 4.3 | 0.00 | 0.00 | 0.00 | 70 | 1015.7 |
| 20260506233926 | 67 | 182 | 0.9 | 4.3 | 0.00 | 0.00 | 0.00 | 71 | 1015.9 |
| 20260506233026 | 67 | 218 | 2.6 | 5.2 | 0.00 | 0.00 | 0.00 | 70 | 1015.9 |
| 20260506232126 | 67 | 227 | 3.5 | 7.0 | 0.00 | 0.00 | 0.00 | 68 | 1016.0 |
| 20260506231226 | 67 | 237 | 2.6 | 6.1 | 0.00 | 0.00 | 0.00 | 66 | 1016.2 |
| 20260506230326 | 68 | 209 | 1.7 | 6.1 | 0.00 | 0.00 | 0.00 | 62 | 1016.3 |
| 20260506225426 | 67 | 187 | 1.7 | 6.1 | 0.00 | 0.00 | 0.00 | 63 | 1016.5 |
| 20260506224526 | 67 | 202 | 2.6 | 7.8 | 0.00 | 0.00 | 0.00 | 64 | 1016.6 |
| 20260506223627 | 66 | 222 | 3.5 | 7.8 | 0.00 | 0.00 | 0.00 | 65 | 1016.7 |
| 20260506222726 | 66 | 251 | 3.5 | 7.8 | 0.00 | 0.00 | 0.00 | 66 | 1016.8 |
| 20260506221826 | 66 | 228 | 3.5 | 7.0 | 0.00 | 0.00 | 0.00 | 67 | 1017.1 |
| 20260506220926 | 65 | 230 | 2.6 | 7.0 | 0.00 | 0.00 | 0.00 | 70 | 1017.1 |
| 20260506215126 | 65 | 204 | 2.6 | 6.1 | 0.00 | 0.00 | 0.00 | 71 | 1017.5 |
| 20260506214226 | 66 | 207 | 0.9 | 7.0 | 0.00 | 0.00 | 0.00 | 71 | 1017.7 |
| 20260506213326 | 66 | 188 | 1.7 | 7.0 | 0.00 | 0.00 | 0.00 | 73 | 1017.5 |
| 20260506212427 | 65 | 209 | 2.6 | 7.0 | 0.00 | 0.00 | 0.00 | 77 | 1017.7 |
| 20260506210627 | 65 | 178 | 2.6 | 7.0 | 0.00 | 0.00 | 0.00 | 78 | 1017.8 |
| 20260506205727 | 65 | 172 | 2.6 | 7.0 | 0.00 | 0.00 | 0.00 | 76 | 1018.0 |
| 20260506204826 | 65 | 158 | 2.6 | 7.0 | 0.00 | 0.00 | 0.00 | 78 | 1018.0 |
| 20260506203927 | 66 | 166 | 1.7 | 5.2 | 0.00 | 0.00 | 0.00 | 77 | 1018.0 |
| 20260506203026 | 65 | 173 | 1.7 | 5.2 | 0.00 | 0.00 | 0.00 | 78 | 1018.1 |
| 20260506201725 | 65 | 178 | 1.7 | 5.2 | 0.00 | 0.00 | 0.00 | 77 | 1018.2 |
| 20260506200826 | 65 | 177 | 0.9 | 7.0 | 0.00 | 0.00 | 0.00 | 75 | 1018.3 |
| 20260506195926 | 65 | 151 | 1.7 | 6.1 | 0.00 | 0.00 | 0.00 | 76 | 1018.4 |
| 20260506192326 | 65 | 195 | 1.7 | 6.1 | 0.00 | 0.00 | 0.00 | 75 | 1018.4 |
| 20260506191426 | 65 | 157 | 3.5 | 6.1 | 0.00 | 0.00 | 0.00 | 75 | 1018.4 |
| 20260506183825 | 65 | 163 | 1.7 | 6.1 | 0.00 | 0.00 | 0.00 | 77 | 1018.4 |
| 20260506182925 | 64 | 196 | 1.7 | 5.2 | 0.00 | 0.00 | 0.00 | 77 | 1018.5 |
| 20260506181126 | 64 | 151 | 1.7 | 6.1 | 0.00 | 0.00 | 0.00 | 79 | 1018.8 |
| 20260506180225 | 63 | 171 | 1.7 | 5.2 | 0.00 | 0.00 | 0.00 | 80 | 1018.7 |
| 20260506175325 | 63 | 174 | 1.7 | 5.2 | 0.00 | 0.00 | 0.00 | 80 | 1018.7 |
| 20260506174426 | 63 | 155 | 1.7 | 6.1 | 0.00 | 0.00 | 0.00 | 81 | 1018.6 |
| 20260506171726 | 63 | 190 | 0.9 | 5.2 | 0.00 | 0.00 | 0.00 | 82 | 1018.8 |
| 20260506170826 | 62 | 184 | 0.9 | 4.3 | 0.00 | 0.00 | 0.00 | 82 | 1018.7 |
| 20260506165026 | 61 | 157 | 0.9 | 4.3 | 0.00 | 0.00 | 0.00 | 84 | 1018.5 |
| 20260506164126 | 61 | 205 | 0.9 | 5.2 | 0.00 | 0.00 | 0.00 | 83 | 1018.5 |
| 20260506163225 | 62 | 161 | 0.9 | 4.3 | 0.00 | 0.00 | 0.00 | 81 | 1018.4 |
| 20260506162326 | 62 | 164 | 0.9 | 3.5 | 0.00 | 0.00 | 0.00 | 82 | 1018.5 |
| 20260506161426 | 62 | 150 | 0.9 | 4.3 | 0.00 | 0.00 | 0.00 | 82 | 1018.4 |
| 20260506155625 | 62 | 131 | 0.9 | 4.3 | 0.00 | 0.00 | 0.00 | 79 | 1018.4 |
| 20260506154726 | 61 | 146 | 0.9 | 3.5 | 0.00 | 0.00 | 0.00 | 80 | 1018.5 |
| 20260506153613 | 60 | 0 | 0.0 | 3.5 | 0.00 | 0.00 | 0.00 | 83 | 1018.5 |
| 20260506152713 | 60 | 151 | 0.9 | 3.5 | 0.00 | 0.00 | 0.00 | 86 | 1018.4 |
| 20260506151813 | 59 | 166 | 0.9 | 3.5 | 0.00 | 0.00 | 0.00 | 87 | 1018.5 |
| 20260506150913 | 59 | 166 | 0.9 | 3.5 | 0.00 | 0.00 | 0.00 | 89 | 1018.5 |
| 20260506150014 | 58 | 0 | 0.0 | 2.6 | 0.00 | 0.00 | 0.00 | 91 | 1018.3 |
| 20260506145113 | 58 | 0 | 0.0 | 2.6 | 0.00 | 0.00 | 0.00 | 92 | 1018.3 |
| 20260506144214 | 57 | 0 | 0.0 | 1.7 | 0.00 | 0.00 | 0.00 | 93 | 1018.3 |
| 20260506143313 | 57 | 0 | 0.0 | 2.6 | 0.00 | 0.00 | 0.00 | 94 | 1018.2 |
| 20260506142413 | 57 | 0 | 0.0 | 0.9 | 0.00 | 0.00 | 0.00 | 95 | 1018.1 |
| 20260506141513 | 56 | 0 | 0.0 | 0.9 | 0.00 | 0.00 | 0.00 | 95 | 1018.1 |
| 20260506140614 | 55 | 0 | 0.0 | 0.9 | 0.00 | 0.00 | 0.00 | 96 | 1018.0 |
| 20260506135713 | 54 | 0 | 0.0 | 0.0 | 0.00 | 0.00 | 0.00 | 96 | 1017.9 |
| 20260506134813 | 53 | 0 | 0.0 | 0.9 | 0.00 | 0.00 | 0.00 | 96 | 1017.8 |
| 20260506133913 | 52 | 0 | 0.0 | 1.7 | 0.00 | 0.00 | 0.00 | 95 | 1017.6 |
| 20260506133013 | 52 | 0 | 0.0 | 1.7 | 0.00 | 0.00 | 0.00 | 95 | 1017.5 |
| 20260506132113 | 52 | 0 | 0.0 | 0.9 | 0.00 | 0.00 | 0.00 | 94 | 1017.5 |
| 20260506131213 | 52 | 0 | 0.0 | 1.7 | 0.00 | 0.00 | 0.00 | 95 | 1017.5 |
| 20260506130146 | 52 | 0 | 0.0 | 1.7 | 0.00 | 0.00 | 0.00 | 94 | 1017.3 |
| 20260506125247 | 52 | 0 | 0.0 | 1.7 | 0.00 | 0.00 | 0.00 | 94 | 1017.3 |
| 20260506122547 | 53 | 35 | 0.9 | 1.7 | 0.00 | 0.00 | 0.00 | 94 | 1017.3 |
| 20260506121646 | 53 | 0 | 0.0 | 1.7 | 0.00 | 0.00 | 0.00 | 95 | 1017.3 |
| 20260506120747 | 52 | 0 | 0.0 | 1.7 | 0.00 | 0.00 | 0.00 | 94 | 1017.2 |
| 20260506115846 | 53 | 0 | 0.0 | 1.7 | 0.00 | 0.00 | 0.00 | 94 | 1017.2 |
| 20260506114947 | 53 | 0 | 0.0 | 1.7 | 0.00 | 0.00 | 0.00 | 93 | 1017.2 |
| 20260506112552 | 53 | 0 | 0.0 | 1.7 | 0.00 | 0.00 | 0.00 | 93 | 1017.2 |
| 20260506111652 | 53 | 109 | 0.9 | 1.7 | 0.00 | 0.00 | 0.00 | 93 | 1017.2 |
| 20260506110752 | 53 | 0 | 0.0 | 1.7 | 0.00 | 0.00 | 0.00 | 93 | 1017.1 |
| 20260506105853 | 53 | 0 | 0.0 | 1.7 | 0.00 | 0.00 | 0.00 | 93 | 1017.1 |
| 20260506104952 | 53 | 0 | 0.0 | 1.7 | 0.00 | 0.00 | 0.00 | 92 | 1017.0 |
| 20260506104052 | 54 | 0 | 0.0 | 1.7 | 0.00 | 0.00 | 0.00 | 93 | 1017.0 |
| 20260506102252 | 54 | 0 | 0.0 | 0.9 | 0.00 | 0.00 | 0.00 | 92 | 1016.8 |
| 20260506101352 | 54 | 0 | 0.0 | 1.7 | 0.00 | 0.00 | 0.00 | 92 | 1016.8 |
| 20260506100452 | 55 | 0 | 0.0 | 4.3 | 0.00 | 0.00 | 0.00 | 93 | 1016.9 |
| 20260506095551 | 55 | 41 | 0.9 | 4.3 | 0.00 | 0.00 | 0.00 | 93 | 1016.9 |
| 20260506094651 | 55 | 101 | 0.9 | 3.5 | 0.00 | 0.00 | 0.00 | 92 | 1016.8 |
| 20260506093752 | 55 | 0 | 0.0 | 2.6 | 0.00 | 0.00 | 0.00 | 92 | 1016.8 |
| 20260506092852 | 55 | 0 | 0.0 | 2.6 | 0.00 | 0.00 | 0.00 | 92 | 1016.8 |
| 20260506091951 | 55 | 0 | 0.0 | 2.6 | 0.00 | 0.00 | 0.00 | 92 | 1016.8 |
| 20260506091051 | 55 | 0 | 0.0 | 3.5 | 0.00 | 0.00 | 0.00 | 91 | 1016.8 |
| 20260506090152 | 55 | 63 | 0.9 | 2.6 | 0.00 | 0.00 | 0.00 | 91 | 1016.9 |
| 20260506085252 | 56 | 0 | 0.0 | 3.5 | 0.00 | 0.00 | 0.00 | 91 | 1017.1 |
| 20260506084351 | 56 | 60 | 1.7 | 4.3 | 0.00 | 0.00 | 0.00 | 91 | 1017.2 |
| 20260506083451 | 56 | 56 | 1.7 | 6.1 | 0.00 | 0.00 | 0.00 | 91 | 1017.2 |
| 20260506082552 | 56 | 58 | 2.6 | 6.1 | 0.00 | 0.00 | 0.00 | 91 | 1017.1 |
| 20260506081652 | 56 | 0 | 0.0 | 3.5 | 0.00 | 0.00 | 0.00 | 91 | 1017.3 |
| 20260506080752 | 56 | 66 | 1.7 | 5.2 | 0.00 | 0.00 | 0.00 | 91 | 1017.2 |